Date String (YYYY-MM-DD hh:mm:ss) UTC,Instrument flags,Ambient pressure (hPa),Sample flow (lpm),Bypass flow (lpm),Sample temperature (°C),Ambient temperature (°C),ASC tube jacket temperature (°C),LED temperature (°C),Box temperature (°C),Sample RH (%),Span deviation,Mass concentration (μg/m³),Mass concentration (μg/m³),Mass concentration (μg/m³)
DateTimeUTC,F1_M11,P_M11,Q1_M11,Q2_M11,T1_M11,T2_M11,T3_M11,T4_M11,T5_M11,U1_M11,ZSPAN_M11,X0_M11,X2_M11,X1_M11
2021-12-24 05:00:00,,0809.7,5.01,0.00,24.0,23.2,00.0,33.0,25.7,19.8,0000.0,0001.14,0000.34,0000.26
2021-12-24 05:01:00,,0809.7,4.98,0.00,24.1,23.2,00.0,33.0,25.7,19.7,0000.0,0001.16,0000.35,0000.24
2021-12-24 05:02:00,,0809.7,5.01,0.00,24.1,23.2,00.0,33.0,25.7,19.7,0000.0,0001.16,0000.34,0000.23
2021-12-24 05:03:00,,0809.7,4.99,0.00,24.1,23.2,00.0,33.0,25.7,19.8,0000.0,0001.10,0000.31,0000.22
2021-12-24 05:04:00,,0809.7,5.02,0.00,24.1,23.2,00.0,33.1,25.7,19.8,0000.0,0001.12,0000.31,0000.22
2021-12-24 05:05:00,,0809.6,5.00,0.00,24.1,23.3,00.0,33.1,25.8,19.8,0000.0,0001.09,0000.30,0000.21
2021-12-24 05:06:00,,0809.5,4.99,0.00,24.1,23.2,00.0,33.1,25.8,19.8,0000.0,0001.01,0000.29,0000.20
2021-12-24 05:07:00,,0809.5,5.01,0.00,24.1,23.2,00.0,33.1,25.7,19.8,0000.0,0001.00,0000.28,0000.19
2021-12-24 05:08:00,,0809.5,5.00,0.00,24.1,23.2,00.0,33.1,25.7,19.8,0000.0,0001.00,0000.27,0000.19
2021-12-24 05:09:00,,0809.5,5.00,0.00,24.1,23.2,00.0,33.1,25.7,19.9,0000.0,0000.96,0000.25,0000.18
2021-12-24 05:10:00,,0809.6,5.00,0.00,24.1,23.2,00.0,33.1,25.7,19.8,0000.0,0000.55,0000.24,0000.17
2021-12-24 05:11:00,,0809.5,5.01,0.00,24.1,23.2,00.0,33.1,25.7,19.8,0000.0,0000.34,0000.22,0000.16
2021-12-24 05:12:00,,0809.5,5.00,0.00,24.1,23.2,00.0,33.1,25.7,19.9,0000.0,0000.32,0000.21,0000.15
2021-12-24 05:13:00,,0809.5,4.99,0.00,24.1,23.2,00.0,33.1,25.7,19.9,0000.0,0000.43,0000.22,0000.15
2021-12-24 05:14:00,,0809.5,4.99,0.00,24.1,23.2,00.0,33.1,25.7,19.9,0000.0,0000.62,0000.24,0000.16
2021-12-24 05:15:00,,0809.5,4.99,0.00,24.1,23.2,00.0,33.1,25.7,19.8,0000.0,0000.62,0000.23,0000.15
2021-12-24 05:16:00,,0809.5,5.02,0.00,24.1,23.2,00.0,33.1,25.7,19.9,0000.0,0000.60,0000.22,0000.15
2021-12-24 05:17:00,,0809.5,4.98,0.00,24.1,23.2,00.0,33.1,25.7,20.0,0000.0,0000.60,0000.22,0000.15
2021-12-24 05:18:00,,0809.5,5.01,0.00,24.1,23.2,00.0,33.1,25.7,20.0,0000.0,0000.63,0000.23,0000.15
2021-12-24 05:19:00,,0809.5,5.00,0.00,24.1,23.2,00.0,33.1,25.7,20.0,0000.0,0000.65,0000.24,0000.15
2021-12-24 05:20:00,,0809.4,4.98,0.00,24.1,23.2,00.0,33.1,25.7,20.0,0000.0,0000.66,0000.24,0000.15
2021-12-24 05:21:00,,0809.5,5.02,0.00,24.1,23.2,00.0,33.1,25.7,20.0,0000.0,0000.67,0000.24,0000.15
2021-12-24 05:22:00,,0809.5,4.99,0.00,24.1,23.3,00.0,33.1,25.8,20.0,0000.0,0000.73,0000.24,0000.15
2021-12-24 05:23:00,,0809.5,5.01,0.00,24.1,23.3,00.0,33.1,25.8,20.1,0000.0,0000.76,0000.24,0000.15
2021-12-24 05:24:00,,0809.5,4.99,0.00,24.1,23.2,00.0,33.1,25.7,20.2,0000.0,0000.66,0000.22,0000.14
2021-12-24 05:25:00,,0809.6,5.00,0.00,24.1,23.2,00.0,33.1,25.7,20.3,0000.0,0000.54,0000.19,0000.13
2021-12-24 05:26:00,,0809.5,5.01,0.00,24.1,23.2,00.0,33.1,25.7,20.3,0000.0,0000.98,0000.19,0000.13
2021-12-24 05:27:00,,0809.5,5.00,0.00,24.1,23.2,00.0,33.1,25.7,20.3,0000.0,0001.00,0000.20,0000.14
2021-12-24 05:28:00,,0809.6,5.02,0.00,24.1,23.2,00.0,33.1,25.7,20.3,0000.0,0001.02,0000.21,0000.14
2021-12-24 05:29:00,,0809.6,4.99,0.00,24.1,23.2,00.0,33.1,25.8,20.3,0000.0,0000.99,0000.20,0000.14
2021-12-24 05:30:00,,0809.5,5.00,0.00,24.1,23.2,00.0,33.1,25.9,20.3,0000.0,0000.94,0000.18,0000.13
2021-12-24 05:31:00,,0809.6,5.01,0.00,24.1,23.3,00.0,33.1,25.9,20.4,0000.0,0000.93,0000.17,0000.13
2021-12-24 05:32:00,,0809.5,4.98,0.00,24.1,23.3,00.0,33.1,25.9,20.4,0000.0,0000.92,0000.17,0000.13
2021-12-24 05:33:00,,0809.5,4.99,0.00,24.1,23.3,00.0,33.1,25.8,20.4,0000.0,0000.94,0000.18,0000.14
2021-12-24 05:34:00,,0809.6,5.01,0.00,24.1,23.3,00.0,33.1,25.9,20.5,0000.0,0000.90,0000.17,0000.14
2021-12-24 05:35:00,,0809.5,5.00,0.00,24.1,23.3,00.0,33.1,25.9,20.5,0000.0,0000.91,0000.18,0000.14
2021-12-24 05:36:00,,0809.4,4.99,0.00,24.1,23.3,00.0,33.1,25.9,20.5,0000.0,0000.81,0000.19,0000.14
2021-12-24 05:37:00,,0809.3,5.00,0.00,24.2,23.3,00.0,33.1,25.9,20.5,0000.0,0000.34,0000.18,0000.14
2021-12-24 05:38:00,,0809.3,4.99,0.00,24.2,23.4,00.0,33.2,25.9,20.5,0000.0,0000.32,0000.17,0000.13
2021-12-24 05:39:00,,0809.3,5.00,0.00,24.2,23.4,00.0,33.2,25.9,20.5,0000.0,0000.29,0000.16,0000.13
2021-12-24 05:40:00,,0809.2,5.00,0.00,24.2,23.4,00.0,33.2,25.9,20.5,0000.0,0000.30,0000.16,0000.13
2021-12-24 05:41:00,,0809.3,5.01,0.00,24.2,23.4,00.0,33.2,25.9,20.6,0000.0,0000.31,0000.16,0000.13
2021-12-24 05:42:00,,0809.3,4.99,0.00,24.2,23.4,00.0,33.2,25.9,20.6,0000.0,0000.30,0000.16,0000.13
2021-12-24 05:43:00,,0809.3,5.01,0.00,24.2,23.4,00.0,33.2,25.9,20.6,0000.0,0000.31,0000.16,0000.13
2021-12-24 05:44:00,,0809.3,5.00,0.00,24.2,23.4,00.0,33.2,25.9,20.6,0000.0,0000.23,0000.15,0000.13
2021-12-24 05:45:00,,0809.4,5.00,0.00,24.1,23.4,00.0,33.2,25.9,20.6,0000.0,0000.20,0000.14,0000.13
2021-12-24 05:46:00,,0809.4,5.00,0.00,24.1,23.4,00.0,33.2,25.9,20.6,0000.0,0000.18,0000.13,0000.12
2021-12-24 05:47:00,,0809.4,4.98,0.00,24.1,23.4,00.0,33.2,25.9,20.6,0000.0,0000.16,0000.13,0000.12
2021-12-24 05:48:00,,0809.4,5.01,0.00,24.1,23.3,00.0,33.2,25.8,20.6,0000.0,0000.16,0000.13,0000.12
2021-12-24 05:49:00,,0809.4,5.01,0.00,24.1,23.3,00.0,33.2,25.7,20.6,0000.0,0000.20,0000.14,0000.12
2021-12-24 05:50:00,,0809.4,5.00,0.00,24.1,23.3,00.0,33.1,25.7,20.6,0000.0,0000.22,0000.14,0000.12
2021-12-24 05:51:00,,0809.4,5.01,0.00,24.1,23.3,00.0,33.1,25.8,20.6,0000.0,0000.22,0000.14,0000.12
2021-12-24 05:52:00,,0809.3,5.00,0.00,24.1,23.3,00.0,33.1,25.8,20.6,0000.0,0000.22,0000.14,0000.12
2021-12-24 05:53:00,,0809.3,4.99,0.00,24.1,23.3,00.0,33.1,25.7,20.6,0000.0,0000.22,0000.14,0000.12
2021-12-24 05:54:00,,0809.2,4.99,0.00,24.1,23.3,00.0,33.1,25.7,20.5,0000.0,0000.23,0000.15,0000.12
2021-12-24 05:55:00,,0809.2,5.00,0.00,24.1,23.3,00.0,33.1,25.7,20.6,0000.0,0000.27,0000.16,0000.12
2021-12-24 05:56:00,,0809.2,5.01,0.00,24.1,23.3,00.0,33.1,25.7,20.6,0000.0,0000.27,0000.16,0000.12
2021-12-24 05:57:00,,0809.2,4.98,0.00,24.1,23.3,00.0,33.1,25.7,20.6,0000.0,0000.31,0000.17,0000.13
2021-12-24 05:58:00,,0809.2,5.00,0.00,24.1,23.3,00.0,33.1,25.8,20.6,0000.0,0000.31,0000.17,0000.12
2021-12-24 05:59:00,,0809.2,5.01,0.00,24.1,23.3,00.0,33.1,25.8,20.6,0000.0,0000.31,0000.17,0000.12
